Regional Weather Roundup
Issued by NWS San Angelo, TX

Home | Current Version | Previous Version | Text Only | Print | Product List | Glossary On
Versions: 1 2 3 4 5 6 7 8 9 10 11 12 13 14 15 16 17 18 19 20 21 22 23 24 25 26 27 28 29 30 31 32 33 34 35 36 37 38 39 40 41 42 43 44 45 46 47 48 49 50
000
ASUS44 KSJT 300910
RWRSJT
WEST CENTRAL TEXAS REGIONAL WEATHER ROUNDUP
NATIONAL WEATHER SERVICE SAN ANGELO TX
400 AM CDT TUE SEP 30 2014

NOTE: "FAIR" INDICATES FEW OR NO CLOUDS BELOW 12,000 FEET WITH NO
SIGNIFICANT WEATHER AND/OR OBSTRUCTIONS TO VISIBILITY.

TXZ049-054-064>066-071>073-076>078-098-099-113-114-127-128-139-140-
154-155-168>170-301000
...LOCATIONS ACROSS WEST CENTRAL TEXAS...

CITY           SKY/WX    TMP DP  RH WIND       PRES   REMARKS
SAN ANGELO     CLEAR     67  60  78 S5        29.91F
ABILENE        PTCLDY    68  55  63 S9        29.92F
DYESS AFB      PTCLDY    67  55  66 S8        29.90F
JUNCTION       CLEAR     66  61  84 CALM      29.94S
SWEETWATER     PTCLDY    67  57  71 SE9       29.96S
BROWNWOOD      PTCLDY    59  55  88 E5        29.93S
COLEMAN        SUNNY     65  55  70 CALM      29.93F
SONORA         CLEAR     68  63  83 CALM      29.98F
OZONA          FAIR      63  59  88 CALM      29.96F
BRADY          CLEAR     66  57  72 SE3       29.94S
$$

TEXAS PANHANDLE/OKLAHOMA PANHANDLE

CITY           SKY/WX    TMP DP  RH WIND       PRES   REMARKS
AMARILLO       PTCLDY    63  57  81 S17       29.92F
BORGER         MOCLDY    67  56  67 SW7       29.92R
CANADIAN       MOCLDY    69  55  62 S5        29.90F
DALHART        PTCLDY    62  58  86 S12       29.93F
DUMAS          PTSUNNY   61  57  87 S10       29.93S
GUYMON         NOT AVBL
HEREFORD       MOSUNNY   62  59  90 MISG      29.94S
PAMPA          MOSUNNY   64  52  67 S14       29.92F
PERRYTON       PTCLDY    65  54  66 S12       29.90F
$$

SOUTHERN PANHANDLE/SOUTH PLAINS/ROLLING PLAINS

CITY           SKY/WX    TMP DP  RH WIND       PRES   REMARKS
LUBBOCK        PTCLDY    64  57  78 S10       29.94F
SNYDER         PTCLDY    65  58  75 S7        29.93F
CHILDRESS      CLEAR     63  55  75 SE6       29.91F
SEMINOLE       MOSUNNY   63  58  84 SE6       29.94F
$$

PERMIAN BASIN

CITY           SKY/WX    TMP DP  RH WIND       PRES   REMARKS
MIDLAND        CLEAR     66  59  78 SE8       29.92F
ODESSA         CLEAR     67  59  75 S10       29.93F
WINK           PTCLDY    67  60  78 SE9       29.89F
$$

FAR WEST/SOUTHWEST MOUNTAINS/TRANS PECOS

CITY           SKY/WX    TMP DP  RH WIND       PRES   REMARKS
ALPINE         PTSUNNY   61  55  82 W6        30.06S
DRYDEN           N/A     67  63  87 N6        29.90F
EL PASO        PTCLDY    74  55  51 W10       29.93S
FORT STOCKTON  PTCLDY    67  59  75 S12       29.91F
GUADALUPE PASS PTCLDY    64  56  75 W10       30.04F
MARFA          MOCLDY    55  54  94 NW6       30.06S
PECOS          CLOUDY    65  59  80 NE3       29.88S
$$

DALLAS/FORT WORTH METROPLEX

CITY           SKY/WX    TMP DP  RH WIND       PRES   REMARKS
DFW AIRPORT    MOCLDY    73  65  75 CALM      29.90S
FTW MEACHAM    MOCLDY    73  65  75 SE6       29.89F
DAL-EXECUTIVE  PTCLDY    68  63  84 SE3       29.89F
GRAND PRAIRIE  PTCLDY    73  64  74 CALM      29.91S
ADDISON        PTCLDY    73  64  71 CALM      29.92S
MESQUITE       SUNNY     66  62  88 CALM      29.90F
LANCASTER      SUNNY     66  59  78 CALM      29.91F
$$

NORTH CENTRAL TEXAS

CITY           SKY/WX    TMP DP  RH WIND       PRES   REMARKS
SHRMAN/DENISON SUNNY     70  60  69 E7        29.93S
GAINESVILLE    CLEAR     66  60  80 CALM      29.93F
BRIDGEPORT     MOSUNNY   65  59  81 CALM      29.93S
DENTON         PTCLDY    66  60  81 CALM      29.90F
WAXAHACHIE     MOSUNNY   69  63  82 CALM      29.92S
GRANBURY       MOSUNNY   69  63  80 SE5       29.92R
$$

WESTERN NORTH TEXAS

CITY           SKY/WX    TMP DP  RH WIND       PRES   REMARKS
WICHITA FALLS  CLEAR     66  60  81 SE6       29.89F
VERNON         SUNNY     69  58  67 SE7       29.90S
BRECKENRIDGE   MOSUNNY   68  55  63 SE8       29.90F
COMANCHE       CLEAR     65  57  75 S7        29.93S
$$

CENTRAL AND SOUTH CENTRAL TEXAS

CITY           SKY/WX    TMP DP  RH WIND       PRES   REMARKS
AUSTIN/BERGSTM PTCLDY    65  63  93 CALM      29.89F
WACO           CLEAR     66  62  87 CALM      29.90S
HILLSBORO      SUNNY     73  65  78 E6        29.90S
TEMPLE         MOCLDY    66  57  72 NE5       29.89F
KILLEEN-GRAY   NOT AVBL
FORT HOOD      MOCLDY    69  62  78 CALM      29.91S
GEORGETOWN     CLEAR     64  61  88 NW3       29.90F
LAGO VISTA     FAIR      73  61  66 CALM      29.92F
SAN MARCOS     MOCLDY    66  57  72 N5        29.90F
NEW BRAUNFELS  CLEAR     67  63  87 CALM      29.88F
RANDOLPH AFB   MOCLDY    67  63  86 N3        29.89F
SAN ANTONIO    CLEAR     68  63  84 NW5       29.90F
STINSON        CLEAR     70  66  87 CALM      29.87F
PLEASANTON     NOT AVBL
LA GRANGE      CLEAR     71  68  90 CALM      29.87S
GIDDINGS       PTSUNNY   68  65  88 SE3       29.92F
$$

EAST TEXAS

CITY           SKY/WX    TMP DP  RH WIND       PRES   REMARKS
PARIS          MOCLDY    70  57  64 NE3       29.93S
CLARKSVILLE    NOT AVBL
TYLER          CLEAR     72  66  81 CALM      29.91R
LONGVIEW       CLOUDY    69  65  86 CALM      29.90S
PALESTINE      SUNNY     70  68  94 CALM      29.91S
NACOGDOCHES    CLEAR     66  64  94 CALM      29.90S
$$

TEXAS HILL COUNTRY AND EDWARDS PLATEAU

CITY           SKY/WX    TMP DP  RH WIND       PRES   REMARKS
LLANO          SUNNY     64  61  88 CALM      29.94F
HORSESHOE BAY  FAIR      66  60  80 CALM      29.92S
KERRVILLE      CLEAR     61  59  93 CALM      29.94F
FREDERICKSBRG  CLEAR     61  59  93 NW5       29.94S
ROCKSPRINGS    SUNNY     66  63  88 CALM      29.98S
HONDO          CLEAR     67  62  84 N5        29.91F
UVALDE         SUNNY     68  66  94 NE6       29.90F
DEL RIO        CLEAR     72  66  81 E5        29.88S
$$

SOUTHEAST TEXAS

CITY           SKY/WX    TMP DP  RH WIND       PRES   REMARKS
COLLEGE STN    CLOUDY    73  69  87 CALM      29.89S
CALDWELL       MOSUNNY   70  66  88 CALM      29.92S
CROCKETT       SUNNY     72  70  94 CALM      29.92S FOG
BRENHAM        PTCLDY    71  68  90 CALM      29.89S
HUNTSVILLE     CLEAR     70  67  90 CALM      29.89S
CONROE         CLEAR     68  67  96 CALM      29.89R
HOUSTON BUSH   PTCLDY    72  71  97 N3        29.87S
HOUSTON HOBBY  CLEAR     74  72  93 CALM      29.85F
PERLAND        CLEAR     74  71  91 CALM      29.87S
WHARTON        SUNNY     70  70  98 CALM      29.87F FOG
$$

THE UPPER TEXAS COAST

CITY           SKY/WX    TMP DP  RH WIND       PRES   REMARKS
ORANGE         SUNNY    N/A N/A N/A CALM      29.88R HAZE
PORT ARTHUR    CLEAR     75  72  90 NE5       29.85S
GALVESTON      PTCLDY    77  76  96 N5        29.86S
ANGLETON       CLEAR     70  69  97 N5        29.86S FOG
BAY CITY       SUNNY    N/A N/A N/A CALM      29.85F HAZE
$$

TEXAS COASTAL BEND, RIO GRANDE PLAINS DEEP SOUTH TEXAS

CITY           SKY/WX    TMP DP  RH WIND       PRES   REMARKS
VICTORIA       CLEAR     73  72  96 N6        29.87S FOG
BEEVILLE       FAIR      73  73 100 NW3       29.86F FOG
ROCKPORT       MOCLDY    76  74  93 NW9       29.84R
PORT ARANSAS   SUNNY     79  75  87 CALM      29.83F
PORT LAVACA    MOSUNNY   73  72  96 NW5       29.85F FOG
CORPUS CHRISTI MOCLDY    74  73  97 NW8       29.84F
KINGSVILLE NAS CLOUDY    75  75 100 N9        29.84F
COTULLA        CLEAR     73  68  84 CALM      29.87F
LAREDO         CLEAR     74  73  96 S3        29.88F
BROWNSVILLE    PTCLDY    74  74 100 CALM      29.82F
PORT ISABEL    PTCLDY    76  75  97 CALM      29.81F FOG
HEBBRONVILLE     N/A     73  71  93 CALM      29.87F
MCALLEN        CLOUDY    76  75  97 CALM      29.84F
WESLACO        DRIZZLE   75  73  91 CALM      29.83S
FALFURRIAS     MOSUNNY   73  72  97 NW3       29.84F
EDINBURG       CLOUDY    76  73  90 CALM      29.83F
$$


USA.gov is the U.S. government's official web portal to all federal, state and local government web resources and services.